[[{"header":{"parameterUnit":"m.s-1","parameterCategory":1,"la1":30.2991,"la2":30.254,"lo1":-89.0895,"lo2":-89.0444,"dy":0.0017,"dx":0.0017,"nx":28,"ny":28,"refTime":"2024-03-06T09:00:00:Z","depth":0,"parameterNumber":2,"parameterNumberName":"U-component_of_WINDS"},"data":[0,0,0,0,0,0,0,0,0,0,0,0,0,0,0,0,0,0,0,0,0,0,0,0,0,0,0,0,0,0,0,0,0,0,0,0,0,0,0,0,0,0,0,0,0,0,0,0,0,0,0,0,0,0,0,0,0,0,2.0468,2.0469,0,2.0621,2.0622,2.0624,2.0659,2.0658,2.0657,2.0656,2.0816,2.0821,2.0826,0,0,0,0,0,0,0,0,0,0,0,0,0,2.0211,2.0215,2.0468,2.047,2.0471,2.062,2.0622,2.0625,2.0659,2.0658,2.0656,2.0655,2.0814,2.082,2.0827,0,0,0,0,0,0,0,0,0,0,0,0,0,2.0339,2.0216,2.0467,2.0507,2.0512,2.062,2.0623,2.0625,2.0659,2.0658,2.0656,2.0655,2.0812,2.082,2.0827,2.0909,0,0,2.0852,2.0855,0,0,0,0,0,0,0,0,2.0331,2.0348,2.0499,2.0504,2.051,2.0619,2.0591,2.072,2.066,2.0603,2.0656,2.0654,2.0752,2.0765,2.0797,2.0916,2.0923,2.0852,2.0857,2.0861,2.0863,0,0,0,0,0,0,0,2.0322,2.0342,2.0528,2.0501,2.0508,2.0518,2.0535,2.0615,2.0685,2.0608,2.0611,2.0628,2.0755,2.0789,2.0801,2.0925,2.0852,2.0859,2.0864,2.0867,2.1122,2.1124,0,0,0,0,0,0,2.0306,2.0334,2.0523,2.0533,2.0415,2.0524,2.0542,2.0586,2.0684,2.0697,2.063,2.0629,2.0777,2.0792,2.0807,2.091,2.086,2.0868,2.0872,2.112,2.1123,2.1125,0,0,0,0,0,0,2.03,2.0323,2.0517,2.0434,2.046,2.053,2.0578,2.0589,2.0624,2.07,2.0713,2.0652,2.0776,2.0796,2.0883,2.0916,2.0871,2.0879,2.1118,2.1121,2.1124,2.1116,0,0,0,0,0,0,2.0293,2.032,2.0351,2.0435,2.0464,2.059,2.058,2.0594,2.0637,2.0638,2.0725,2.0738,2.0776,2.0871,2.0891,2.0926,2.0885,2.1115,2.1119,2.1123,2.1114,2.1119,2.1123,0,0,0,0,0,2.0284,2.0343,2.0352,2.0375,2.0503,2.0592,2.0609,2.0651,2.064,2.0672,2.0721,2.0735,2.0909,2.088,2.0903,2.0941,2.1113,2.1118,2.1122,2.1112,2.1118,2.1123,0,0,0,0,0,0,2.0261,2.0354,2.0366,2.0453,2.0514,2.0597,2.0639,2.0655,2.0721,2.072,2.0771,2.079,2.0875,2.0917,2.0883,2.1026,2.1011,2.102,2.0995,2.1002,2.1006,2.0995,2.0891,0,0,0,0,0,2.0266,2.0329,2.0408,2.0478,2.0507,2.0568,2.0608,2.0635,2.0701,2.0727,2.0783,2.0847,2.0917,2.0961,2.1029,2.112,2.1141,2.1157,2.1162,2.1165,2.1173,2.1226,2.1235,2.114,2.114,2.114,0,0,2.0278,2.0337,2.0373,2.0475,2.0525,2.059,2.0589,2.0658,2.0708,2.0738,2.0824,2.0868,2.0943,2.1033,2.1076,2.107,2.1204,2.1171,2.1173,2.1179,2.1232,2.1241,2.1249,2.1143,2.1142,2.1142,0,0,2.0333,2.0383,2.0447,2.0498,2.0574,2.0614,2.063,2.0711,2.074,2.0828,2.0852,2.0913,2.1031,2.1085,2.1127,2.1204,2.122,2.1225,2.1248,2.13,2.1308,2.1315,2.1344,2.1354,2.1232,2.1232,2.1232,0,2.0338,2.0436,2.0479,2.0547,2.0592,2.0622,2.0689,2.0736,2.0831,2.0862,2.0855,2.1005,2.1058,2.1162,2.1181,2.1214,2.1235,2.1216,2.1303,2.131,2.1317,2.1346,2.1357,2.1233,2.1232,2.1232,2.1232,0,2.044,2.0508,2.0551,2.0641,2.0691,2.0758,2.0813,2.0859,2.0882,2.0924,2.1014,2.1078,2.1161,2.1187,2.1211,2.1296,2.1291,2.1292,2.1279,2.1326,2.1354,2.1365,2.1233,2.1233,2.1233,2.1233,0,0,2.0484,2.0598,2.0614,2.0656,2.0743,2.0797,2.0867,2.0947,2.0986,2.1051,2.1112,2.1212,2.1215,2.1263,2.1293,2.1338,2.1398,2.1335,2.1338,2.1346,2.1498,2.1497,2.1509,2.1409,2.1411,2.1413,2.1492,0,2.0551,2.0675,2.0716,2.082,2.0885,2.0915,2.0976,2.1037,2.1078,2.114,2.1186,2.1257,2.1254,2.1284,2.133,2.1381,2.1429,2.1375,2.1468,2.1471,2.1449,2.1523,2.1522,2.1594,2.1503,2.1505,2.1507,0,2.0645,2.0711,2.0821,2.0901,2.093,2.0984,2.1062,2.112,2.1191,2.1218,2.1273,2.13,2.1376,2.1358,2.1465,2.1428,2.1468,2.1499,2.1503,2.1514,2.1492,2.1538,2.1618,2.1629,2.1524,2.1522,2.1521,0,2.0669,2.0785,2.0866,2.0901,2.0997,2.1035,2.1076,2.1146,2.1192,2.126,2.1291,2.1368,2.141,2.147,2.1518,2.15,2.1622,2.1607,2.1649,2.1648,2.1674,2.1672,2.1762,2.1697,2.1697,2.1697,2.1697,0,2.0739,2.0806,2.0878,2.0929,2.1005,2.1053,2.1127,2.1171,2.1233,2.1294,2.1324,2.1381,2.1441,2.1506,2.1544,2.1629,2.1647,2.1673,2.1682,2.1671,2.1668,2.1699,2.1696,2.17,2.1699,2.1699,2.1698,0,2.0779,2.083,2.0921,2.1004,2.1026,2.1079,2.1152,2.1203,2.1245,2.1322,2.1343,2.141,2.1489,2.1543,2.1644,2.167,2.1762,2.177,2.1737,2.1742,2.1781,2.1778,2.1897,2.1916,2.1836,2.1837,2.1837,0,2.0821,2.0873,2.0962,2.1004,2.1046,2.1114,2.1161,2.1211,2.1259,2.1345,2.1386,2.1467,2.1534,2.1658,2.1718,2.1796,2.1807,2.1844,2.1819,2.1807,2.181,2.1807,2.1813,2.1847,2.1848,2.1849,2.1849,0,2.0891,2.0914,2.098,2.1056,2.1112,2.1174,2.1237,2.127,2.1331,2.1384,2.1465,2.1517,2.162,2.17,2.1784,2.183,2.1851,2.1856,2.187,2.186,2.1839,2.1853,2.1749,2.1853,2.1853,2.1853,2.1852,2.1852,2.0935,2.0983,2.1054,2.1127,2.1179,2.1238,2.129,2.134,2.1407,2.1494,2.152,2.1604,2.1676,2.1791,2.1838,2.1906,2.1903,2.1923,2.1928,2.1933,2.1933,2.1827,2.1921,2.1921,2.1921,2.1921,2.1921,0,2.1009,2.1055,2.1122,2.1209,2.1267,2.128,2.1351,2.14,2.1473,2.1537,2.1603,2.1697,2.1775,2.1841,2.1923,2.1965,2.1977,2.1985,2.1983,2.1994,2.193,2.1911,2.1974,2.1974,2.1974,2.1974,2.1974,2.1974,2.1054,2.1137,2.1168,2.1279,2.1326,2.1407,2.1447,2.1502,2.1554,2.1656,2.1722,2.1763,2.183,2.1917,2.1991,2.2008,2.2038,2.2044,2.2064,2.2004,2.1998,2.1992,2.1974,2.205,2.205,2.2122,2.2123,2.2123]},{"header":{"parameterUnit":"m.s-1","parameterCategory":1,"la1":30.2991,"la2":30.254,"lo1":-89.0895,"lo2":-89.0444,"dy":0.0017,"dx":0.0017,"nx":28,"ny":28,"refTime":"2024-03-06T09:00:00:Z","depth":0,"parameterNumber":3,"parameterNumberName":"V-component_of_WINDS"},"data":[0,0,0,0,0,0,0,0,0,0,0,0,0,0,0,0,0,0,0,0,0,0,0,0,0,0,0,0,0,0,0,0,0,0,0,0,0,0,0,0,0,0,0,0,0,0,0,0,0,0,0,0,0,0,0,0,0,0,-2.8091,-2.8091,0,-2.8137,-2.8137,-2.8138,-2.8139,-2.8139,-2.8138,-2.8138,-2.8185,-2.8187,-2.8188,0,0,0,0,0,0,0,0,0,0,0,0,0,-2.8004,-2.8006,-2.809,-2.8091,-2.8092,-2.8137,-2.8137,-2.8138,-2.814,-2.8139,-2.8138,-2.8138,-2.8184,-2.8186,-2.8188,0,0,0,0,0,0,0,0,0,0,0,0,0,-2.8045,-2.8006,-2.809,-2.8098,-2.8099,-2.8137,-2.8137,-2.8138,-2.814,-2.8139,-2.8138,-2.8137,-2.8184,-2.8186,-2.8189,-2.8222,0,0,-2.8197,-2.8198,0,0,0,0,0,0,0,0,-2.8043,-2.8048,-2.8096,-2.8097,-2.8099,-2.8132,-2.8124,-2.8166,-2.814,-2.8124,-2.8138,-2.8137,-2.8168,-2.8172,-2.8182,-2.8224,-2.8226,-2.8197,-2.8199,-2.82,-2.8201,0,0,0,0,0,0,0,-2.804,-2.8046,-2.8109,-2.8097,-2.8099,-2.8099,-2.8104,-2.8132,-2.815,-2.8126,-2.8126,-2.8131,-2.8168,-2.818,-2.8183,-2.8227,-2.8197,-2.8199,-2.8201,-2.8202,-2.8299,-2.83,0,0,0,0,0,0,-2.8036,-2.8044,-2.8107,-2.811,-2.8068,-2.8101,-2.8107,-2.8122,-2.815,-2.8153,-2.8132,-2.8131,-2.8175,-2.818,-2.8185,-2.8226,-2.82,-2.8202,-2.8204,-2.8298,-2.8299,-2.83,0,0,0,0,0,0,-2.8034,-2.8041,-2.8105,-2.8077,-2.8085,-2.8104,-2.8121,-2.8123,-2.8134,-2.8155,-2.8158,-2.814,-2.8175,-2.8181,-2.8213,-2.8227,-2.8204,-2.8206,-2.8297,-2.8298,-2.83,-2.8308,0,0,0,0,0,0,-2.8031,-2.8041,-2.8053,-2.8077,-2.8087,-2.8132,-2.8121,-2.8125,-2.8139,-2.8139,-2.8163,-2.8166,-2.8175,-2.8209,-2.8216,-2.8231,-2.8208,-2.8296,-2.8298,-2.8299,-2.8306,-2.8309,-2.8312,0,0,0,0,0,-2.8028,-2.8053,-2.8054,-2.8061,-2.8103,-2.8133,-2.8139,-2.8148,-2.814,-2.8153,-2.8166,-2.8166,-2.8225,-2.8212,-2.822,-2.8236,-2.8295,-2.8297,-2.8299,-2.8305,-2.8309,-2.8312,0,0,0,0,0,0,-2.803,-2.8056,-2.8057,-2.8091,-2.811,-2.8133,-2.815,-2.8151,-2.8173,-2.8171,-2.8182,-2.8187,-2.8219,-2.8231,-2.8216,-2.827,-2.8259,-2.8263,-2.8261,-2.8264,-2.8267,-2.8263,-2.821,0,0,0,0,0,-2.8034,-2.8056,-2.8079,-2.8106,-2.8116,-2.8131,-2.8145,-2.815,-2.817,-2.8178,-2.8194,-2.8213,-2.8236,-2.8251,-2.8273,-2.8308,-2.8314,-2.8323,-2.8326,-2.8328,-2.8331,-2.8351,-2.8355,-2.8308,-2.8308,-2.8308,0,0,-2.8043,-2.806,-2.8074,-2.8107,-2.8122,-2.8145,-2.8138,-2.8162,-2.818,-2.8182,-2.8213,-2.8225,-2.8247,-2.8281,-2.8296,-2.8292,-2.8346,-2.8331,-2.8333,-2.8334,-2.8354,-2.8358,-2.8362,-2.8309,-2.8309,-2.8309,0,0,-2.8071,-2.8086,-2.8111,-2.8127,-2.815,-2.8161,-2.8167,-2.8191,-2.8199,-2.823,-2.8233,-2.8254,-2.8293,-2.8309,-2.8322,-2.8358,-2.8358,-2.8365,-2.838,-2.8399,-2.8403,-2.8406,-2.8419,-2.8423,-2.8368,-2.8368,-2.8368,0,-2.8079,-2.8114,-2.8124,-2.8149,-2.8163,-2.8167,-2.8193,-2.8207,-2.8237,-2.8247,-2.8241,-2.8292,-2.8307,-2.8345,-2.8353,-2.8364,-2.8372,-2.8362,-2.8401,-2.8405,-2.8408,-2.8421,-2.8425,-2.8369,-2.8369,-2.8369,-2.8369,0,-2.8123,-2.8147,-2.8164,-2.8193,-2.821,-2.8235,-2.8249,-2.8265,-2.8269,-2.8281,-2.8313,-2.8332,-2.8358,-2.8368,-2.8372,-2.8406,-2.8403,-2.8399,-2.8388,-2.8413,-2.8425,-2.843,-2.837,-2.837,-2.8369,-2.8369,0,0,-2.8152,-2.8187,-2.8193,-2.8206,-2.8233,-2.8252,-2.8278,-2.8304,-2.8317,-2.8338,-2.836,-2.8394,-2.8391,-2.8406,-2.8413,-2.843,-2.8457,-2.8424,-2.8425,-2.843,-2.8497,-2.8499,-2.8504,-2.8458,-2.8459,-2.846,-2.8495,0,-2.8183,-2.8228,-2.8238,-2.8277,-2.83,-2.8305,-2.8327,-2.8346,-2.8358,-2.8379,-2.8392,-2.8416,-2.841,-2.8419,-2.8436,-2.845,-2.8471,-2.8448,-2.8479,-2.848,-2.8472,-2.851,-2.8512,-2.8544,-2.8499,-2.85,-2.8501,0,-2.8224,-2.8246,-2.8288,-2.8312,-2.8322,-2.8342,-2.8367,-2.8388,-2.841,-2.8417,-2.8435,-2.844,-2.8467,-2.8456,-2.8494,-2.8478,-2.8491,-2.85,-2.8502,-2.8504,-2.8491,-2.8514,-2.8555,-2.8559,-2.8508,-2.8507,-2.8507,0,-2.8241,-2.8281,-2.8311,-2.8323,-2.8352,-2.8366,-2.8379,-2.84,-2.8416,-2.8438,-2.8448,-2.8474,-2.8487,-2.8507,-2.8519,-2.851,-2.8556,-2.8546,-2.8563,-2.8563,-2.8572,-2.8571,-2.8615,-2.8581,-2.8581,-2.8581,-2.8581,0,-2.8274,-2.8299,-2.832,-2.8338,-2.8367,-2.8379,-2.8407,-2.842,-2.8439,-2.846,-2.8466,-2.8486,-2.8501,-2.8523,-2.8533,-2.8563,-2.8569,-2.8576,-2.8578,-2.8575,-2.8574,-2.8584,-2.8582,-2.8582,-2.8582,-2.8582,-2.8582,0,-2.8298,-2.8312,-2.8345,-2.8371,-2.8378,-2.8398,-2.842,-2.8438,-2.845,-2.8477,-2.8485,-2.8504,-2.853,-2.8544,-2.8577,-2.8584,-2.8618,-2.8619,-2.861,-2.8611,-2.8628,-2.8626,-2.8679,-2.8687,-2.8648,-2.8648,-2.8648,0,-2.8318,-2.8337,-2.8365,-2.838,-2.8393,-2.8417,-2.8433,-2.8446,-2.8462,-2.849,-2.8505,-2.8532,-2.8554,-2.8596,-2.8613,-2.8639,-2.8641,-2.8658,-2.8644,-2.8641,-2.8641,-2.8639,-2.8642,-2.866,-2.866,-2.866,-2.866,0,-2.8352,-2.8358,-2.8381,-2.8406,-2.8425,-2.8446,-2.8467,-2.8479,-2.8495,-2.8513,-2.8541,-2.8558,-2.8592,-2.8619,-2.8646,-2.866,-2.8663,-2.8665,-2.867,-2.8667,-2.8661,-2.8665,-2.8616,-2.8663,-2.8663,-2.8663,-2.8663,-2.8662,-2.8374,-2.8392,-2.8414,-2.844,-2.8457,-2.8476,-2.8495,-2.8509,-2.8533,-2.8561,-2.8568,-2.8597,-2.862,-2.8657,-2.8671,-2.8694,-2.8691,-2.8699,-2.8701,-2.8702,-2.8703,-2.8658,-2.8699,-2.8699,-2.8699,-2.8699,-2.8699,0,-2.8408,-2.8423,-2.8446,-2.8475,-2.8495,-2.8497,-2.852,-2.8537,-2.8562,-2.8583,-2.8605,-2.8637,-2.8664,-2.8683,-2.871,-2.8725,-2.8727,-2.8732,-2.873,-2.8734,-2.8704,-2.8697,-2.8729,-2.8729,-2.8729,-2.8729,-2.8729,-2.8729,-2.8428,-2.8458,-2.8468,-2.8507,-2.8522,-2.855,-2.8564,-2.8582,-2.8598,-2.8634,-2.8656,-2.8668,-2.8689,-2.8718,-2.8742,-2.8748,-2.8757,-2.8762,-2.8767,-2.8739,-2.8736,-2.8733,-2.8726,-2.8764,-2.8764,-2.8794,-2.8794,-2.8795]}]]